CZ-6A DEB

Satellite information

Favourite Embed

Satellite Type and Status

DEBRISIN ORBIT

Key statistics

Satellite CZ-6A DEB at a glance.

Uptime

969

Days in orbit

Revolutions

≈ 14.3

Per day

Orbit

SSO

Sun Synchronous Orbit

Inclination

98.8

Latest

Satellite identification and parameters

Extended collection of information and parameters for CZ-6A DEB.

Object identification

Identified? True

Debris? True

Object name: CZ-6A DEB

International designator: 2022-151SE

Object number (NORAD): 54941

Object ID (CCSDS): 54941

Country: PEOPLES REPUBLIC OF CHINA (PRC)

Current information (Y/N): Y

RCS size: SMALL

Orbital parameters

Period: 100.874 minutes

Inclination: 98.8078 deg

SMA: 7178.179 km

Apoapsis: 827.676 km

Periapsis: 772.412 km

RAAN: 194.8892 deg

Eccentricy: 0.0038495

Argument of periapsis: 204.6563 deg

Mean anomaly: 155.2778 deg

Mean motion: 14.27517147 rev/day

Mean motion (dot): 0.00004844 rev/day2

B* drag term: 0.0019727 1/REarth

Two-line elements (TLE)

Creation date: July 4, 2025, 6:39 p.m.

Reference frame: TEME

Reference center: EARTH

Epoch: July 3, 2025, 11:30 p.m. UTC

TLE line 0: 0 CZ-6A DEB

TLE line 1: 1 54941U 22151SE 25184.97958337 .00004844 00000-0 19727-2 0 9993

TLE line 2: 2 54941 98.8078 194.8892 0038495 204.6563 155.2778 14.27517147134407

Live tracking on map

Real-time ground track for satellite CZ-6A DEB.

In-orbit conjunctions

A list of the most updated potential collisions computed for object CZ-6A DEB.

Target Orbit TCA Probability of collision Miss distance Type
CZ-6A DEB LEO 2025-06-01 07:03:26 0.000734684 22.0 (m) DEBRIS
CZ-6A R/B SSO 2024-05-31 13:18:20 0.0002098956 640.0 (m) ROCKET BODY

Associated space launch

Chinese satellite reported for atmospheric/ocean/environmental/spatial parameter research purposes, details TBD.

CZ-6A DEB was lifted into orbit during the mission ‘Long March 6A | Yunhai 3’, on board a Long March 6A space rocket.

The launch took place on Nov. 11, 2022, 10:52 p.m. from Launch Complex 9A.

For more information about the launch, click the button.

Launch to space Long March 6A | Yunhai 3
Long March 6A | Yunhai 3

Agency: N/A

Status: Launch Successful

Launch date: Nov. 11, 2022, 10:52 p.m. UTC

Rocket: Long March 6A

Launch pad: Launch Complex 9A

Location: Taiyuan Satellite Launch Center, People's Republic of China

...

Latest news about this satellite

There are no fresh news available about this satellite. Check back as we update our databases every day.


Newsletter sign-up

Weekly statistics, charts and insights to help you stay on top of the space industry.